Location: Rattle Snake Springs
(32.1112°N, 104.4750°W)
Time: 10:57:34
(UTC-07:00)

Tiangong 1 - Visible Passes

Search period start: 25 February 2018 00:00
Search period end: 07 March 2018 00:00
Orbit: 245 x 266 km, 42.8° (Epoch: 25 February)

Date Brightness Start Highest point End Pass type
(mag) Time Alt. Az. Time Alt. Az. Time Alt. Az.
26 Feb 2.8 18:49:07 10° SSE 18:49:40 12° SSE 18:49:40 12° SSE visible
27 Feb 1.8 18:40:29 10° SSW 18:42:20 22° SE 18:42:54 19° ESE visible
28 Feb 0.8 18:32:03 10° SW 18:34:13 41° SE 18:35:44 16° ENE visible
01 Mar 0.1 18:23:35 10° WSW 18:25:51 87° SE 18:28:05 10° ENE visible
